Погода в Койдане

Россия / Карачаево-Черкесская Республика     44°06′22″N   42°09′23″E
темп.,
°C
ветер,
м/с
пор.,
м/с
влажн.,
%
обл.,
%
осадки,
мм/ч
давл.,
гПа
погр.,
м
11 апреля, вс
вс1100:00+2с1198100 0.0 1020106
03:00+2всв1198100 0.0 1019110
06:00+2св119698 0.0 1019104
09:00+4всв2290100 0.0 1018371
12:00+5св2284100 0.0 1017610
15:00+7всв2280100 0.1 1016557
18:00+6всв2282100 0.2 1016445
21:00+5св0089100 0.2 101681
12 апреля, пн
пн1200:00+5з1190100 0.0 101619
03:00+4з2296100 0.0 101848
06:00+4зсз2395100 0.0 1019217
09:00+5сз1295100 0.0 1020320
12:00+5с2296100 0.3 1021285
15:00+4с2197100 0.4 1022345
18:00+4ссз1097100 0.3 1022142
21:00+4с1197100 0.4 102297
13 апреля, вт
вт1300:00+4зсз1198100 0.0 1022107
03:00+4з1197100 0.9 102294
06:00+4зсз119698 0.0 102186
09:00+7ссз218397 0.0 1021613
12:00+6с3392100 0.2 1021560
15:00+5с2298100 0.6 1021290
18:00+5с1198100 0.4 1021264
21:00+5всв1199100 0.5 1020127
14 апреля, ср
ср1400:00+5сз1199100 0.3 1018164
03:00+5сз1199100 1.9 101799
06:00+5з119678 1.1 101898
09:00+7зсз357654 1.1 1017695
12:00+7сз5581100 0.1 1017689
15:00+8ссз3381100 0.2 1018675
18:00+7ссз2383100 0.1 1018535
21:00+5с119284 0.1 101876
15 апреля, чт
чт1500:00+4ююв119361 0.0 101811
03:00+4ююз228910 0.0 101711
06:00+4ююз228024 0.0 101714
09:00+10ссв21598 0.0 1014582
12:00+13с33455 0.0 10131327
15:00+14ссв43454 0.0 10121276
18:00+11сз466597 0.2 1015426
21:00+8юв2280100 0.3 101614